Tracking 19484 objects as of 18-Jan-2019
HD Live streaming from Space Station
objects crossing your sky now

FENGYUN 1C DEB

Track FENGYUN 1C DEB now!
10-day predictions


NORAD ID: 30442
Int'l Code: 1999-025AFD
Perigee: 813.6 km
Apogee: 914.7 km
Inclination: 99.0 °
Period: 102.1 minutes
Semi major axis: 7235 km
RCS: 0.0217 m2 (small)
Launch date: May 10, 1999
Source: People's Republic of China (PRC)
Launch site: Taiyaun Space Center, China (TSC)

Note: This is SATELLITE DEBRIS
aabbcc
Your satellite tracking list
Your tracking list is empty




NASA's NSSDC Master Catalog

Two Line Element Set (TLE):
1 30442U 99025AFD 19017.12534439  .00000554  00000-0  32813-3 0  9991
2 30442  98.9813  78.5728 0069850 254.2450 134.3086 14.10680975615479
Source of the keplerian elements: AFSPC